Location: Klein M�hlingen
(51.9472°N, 11.7453°E)
Time: 20:50:45
(UTC+00:00)

Envisat - Pass Details

Date: 03 October 2021
Orbit: 764 x 766 km, 98.2° (Epoch: 20 October)

Event Time Altitude Azimuth Distance (km) Brightness Sun altitude
Rises 03:57:12 0° 19° (NNE) 3,245 6.7 -13.1°
Reaches altitude 10° 03:59:38 10° 26° (NNE) 2,314 6.0 -12.8°
Maximum altitude 04:04:29 43° 98° (E) 1,070 4.3 -12.0°
Drops below altitude 10° 04:09:18 10° 169° (S) 2,297 5.5 -11.3°
Sets 04:11:42 0° 176° (S) 3,218 6.2 -10.9°
